Location: ??
(35.4627°N, 139.3695°E)
Time: 14:17:57
(UTC+00:00)

ALOS - Pass Details

Date: 25 November 2020
Orbit: 683 x 685 km, 97.9° (Epoch: 21 January)

Event Time Altitude Azimuth Distance (km) Brightness Sun altitude
Rises 19:23:45 0° 8° (N) 3,057 5.6 -25.1°
Reaches altitude 10° 19:26:01 10° 6° (N) 2,137 4.8 -24.6°
Enters shadow 19:28:24 30° 359° (N) 1,224 3.4 -24.1°
Exits shadow 19:34:40 14° 203° (SSW) 1,886 4.4 -22.9°
Drops below altitude 10° 19:35:16 10° 202° (SSW) 2,122 4.7 -22.7°
Sets 19:37:30 0° 200° (SSW) 3,033 5.5 -22.3°
